sat.trackr.live / text

‹ back to catalog

STARLINK-34540

NORAD 65657 · 2025-211F

PAYLOAD ACTIVE UNKNOWN

§ Identity

Operator
Country
US
Launch date
2025-09-19
Launch site
AFWTR
Launch vehicle
Mass (kg)
RCS (m²)

Purposes: comms

External: N2YO · Heavens-Above · Gunter

§ Orbital elements

Epoch: 2026-09-20T20:20:18.737376Z

Period
93.91 min
Inclination
97.2824°
Eccentricity
0.0000567
Mean motion
15.33452993 rev/d
Perigee alt
465.1 km
Apogee alt
465.9 km
Semi-major
6,843.7 km
B*
2.8082e-4
RAAN
304.0272°
Arg perigee
123.2109°
Mean anomaly
236.9188°
Rev number
5,657

§ Raw data

STARLINK-345401 65657U 25211F   26263.84743909  .00009004  00000+0  28082-3 0  99982 65657  97.2824 304.0272 0000567 123.2109 236.9188 15.33452993 56571

JSON: /api/v1/satellites/65657 · /tle

For live sub-satellite position, see the globe view (requires WebGL).

§ Visibility from observer

Set your observer location to see the next 7 days of passes ≥ 10°. The values pass through the URL so the page stays shareable.

No JS? Fill the form by hand. The geolocation button needs JavaScript.